Flag for Canada Weather past 2 weeks in Fort Smith, Northwest Territories, Canada

Now
-29 °F

Sunny.


Feels Like: -41 °F
Forecast: -35 / -17 °F
Wind: 3 mph from Southeast

Location: Fort Smith

Current Time: Jan 31, 2015 at 11:37:42 AM

Latest Report: Jan 31, 2015 at 11:00 AM


Visibility: 15 mi

Pressure: 30.79 "Hg

Humidity: 67%

Dew point: -36 °F

Location of Fort SmithLocation

Historic Weather in Fort Smith — Graph

°F

Fort Smith temperature yesterday

Maximum temperature yesterday: -15 °F (at 12:00 AM)
Minimum temperature yesterday: -33 °F (at 10:00 PM)
Average temperature yesterday: -21 °F

Past Weeks' High & Low Weather Summary

 TemperatureHumidityPressure
High27 °F (Jan 21, 8:00 PM)100% (Jan 22, 4:00 AM)30.89 "Hg (Jan 22, 4:00 AM)
Low-38 °F (Jan 31, 5:00 AM)65% (Jan 17, 11:00 AM)29.19 "Hg (Jan 16, 1:00 PM)
Average-2 °F82%30.00 "Hg
* Reported Jan 16 10:00 AM — Jan 31 10:00 AM, Fort Smith, Weather by CustomWeather, © 2014

Note: Actual official high and low records may vary slightly from our data, if they occured in-between our weather recording intervals... More about our weather records

Advertising

Fort Smith weather history for previous 24 hours

 ConditionsComfort  
Time TempWeatherWind HumidityBarometerVisibility
10:00 AM
Jan 31
-36 °FSunny.3 mph66%30.81 "Hg15 mi
9:00 AM-35 °FSunny.3 mph66%30.81 "Hg15 mi
8:00 AM-36 °FClear.5 mph73%30.83 "Hg15 mi
7:00 AM-36 °FClear.No wind66%30.84 "Hg15 mi
6:00 AM-36 °FClear.No wind66%30.85 "Hg15 mi
5:00 AM-38 °FClear.No wind65%30.86 "Hg15 mi
4:00 AM-36 °FClear.2 mph66%30.86 "Hg15 mi
3:00 AM-36 °FClear.2 mph66%30.87 "Hg15 mi
2:00 AM-36 °FClear.No wind73%30.87 "Hg15 mi
1:00 AM-35 °FClear.No wind73%30.88 "Hg15 mi
12:00 AM-33 °FClear.2 mph74%30.89 "Hg15 mi
11:00 PM
Jan 30
-33 °FClear.No wind74%30.89 "Hg15 mi
10:00 PM-33 °FClear.No wind74%30.89 "Hg15 mi
9:00 PM-29 °FClear.2 mph74%30.88 "Hg15 mi
8:00 PM-26 °FClear.3 mph82%30.88 "Hg15 mi
7:00 PM-26 °FClear.3 mph75%30.86 "Hg15 mi
6:00 PM-24 °FClear.No wind75%30.85 "Hg15 mi
5:00 PM-18 °FClear.2 mph69%30.84 "Hg15 mi
4:00 PM-18 °FPassing clouds.6 mph75%30.83 "Hg15 mi
3:00 PM-18 °FSunny.8 mph75%30.81 "Hg15 mi
2:00 PM-18 °FSunny.8 mph69%30.81 "Hg15 mi
1:00 PM-18 °FSunny.8 mph69%30.80 "Hg15 mi
12:00 PM-20 °FSunny.8 mph75%30.78 "Hg15 mi
11:00 AM-22 °FSunny.9 mph75%30.77 "Hg15 mi
Weather by CustomWeather, © 2014

See weather overviewHow to use our weather pages